sat.trackr.live / text

‹ back to catalog

STARLINK-11359 [DTC]

NORAD 61884 · 2024-204L

PAYLOAD ACTIVE UNKNOWN

§ Identity

Operator
Country
US
Launch date
2024-11-09
Launch site
AFWTR
Launch vehicle
Mass (kg)
RCS (m²)

Purposes: comms

External: N2YO · Heavens-Above · Gunter

§ Orbital elements

Epoch: 2026-09-21T20:08:02.380416Z

Period
91.74 min
Inclination
53.1591°
Eccentricity
0.0001059
Mean motion
15.69707283 rev/d
Perigee alt
359.0 km
Apogee alt
360.4 km
Semi-major
6,737.9 km
B*
5.1700e-6
RAAN
109.2014°
Arg perigee
80.8831°
Mean anomaly
279.2307°
Rev number
10,772

§ Raw data

STARLINK-11359 [DTC]1 61884U 24204L   26264.83891644  .00000038  00000+0  51700-5 0  99902 61884  53.1591 109.2014 0001059  80.8831 279.2307 15.69707283107728

JSON: /api/v1/satellites/61884 · /tle

For live sub-satellite position, see the globe view (requires WebGL).

§ Visibility from observer

Set your observer location to see the next 7 days of passes ≥ 10°. The values pass through the URL so the page stays shareable.

No JS? Fill the form by hand. The geolocation button needs JavaScript.